Flag for Germany Weather past 2 weeks in Rodgau, Hesse, Germany

Now
39 °F

Overcast.


Feels Like: 34 °F
Forecast: 35 / 40 °F
Wind: 7 mph from West

Location: Frankfurt / M-Flughafen

Current Time: Jan 27, 2015 at 4:22:12 PM

Latest Report: Jan 27, 2015 at 3:00 PM


Visibility: 16 mi

Pressure: 30.19 "Hg

Humidity: 89%

Dew point: 36 °F

Location of RodgauLocation

Historic Weather in Rodgau — Graph

°F

Rodgau temperature yesterday

Maximum temperature yesterday: 36 °F (at 11:00 PM)
Minimum temperature yesterday: 34 °F (at 5:00 AM)
Average temperature yesterday: 35 °F

Past Weeks' High & Low Weather Summary

 TemperatureHumidityPressure
High56 °F (Jan 13, 3:00 PM)100% (Jan 16, 11:00 PM)30.45 "Hg (Jan 16, 11:00 PM)
Low24 °F (Jan 24, 3:00 AM)44% (Jan 13, 3:00 PM)29.64 "Hg (Jan 15, 7:00 PM)
Average37 °F86%30.02 "Hg
* Reported Jan 12 3:00 PM — Jan 27 3:00 PM, Rodgau, Weather by CustomWeather, © 2014

Note: Actual official high and low records may vary slightly from our data, if they occured in-between our weather recording intervals... More about our weather records

Advertising

Rodgau weather history for previous 24 hours

 ConditionsComfort  
Time TempWeatherWind HumidityBarometerVisibility
3:00 PM
Jan 27
39 °FOvercast.7 mph89%30.19 "Hg16 mi
2:00 PM39 °FOvercast.6 mph87%30.19 "Hg16 mi
1:00 PM39 °FOvercast.7 mph88%30.20 "Hg12 mi
12:00 PM39 °FSprinkles. Overcast.6 mph87%30.21 "Hg11 mi
11:00 AM39 °FOvercast.6 mph84%30.21 "Hg12 mi
9:00 AM35 °FPartly sunny.5 mph93%30.20 "Hg19 mi
8:00 AM34 °FPassing clouds.3 mph94%30.18 "Hg22 mi
7:00 AM35 °FPassing clouds.2 mph90%30.18 "Hg22 mi
6:00 AM36 °FPassing clouds.2 mph88%30.17 "Hg22 mi
5:00 AM36 °FPassing clouds.1 mph91%30.16 "Hg25 mi
3:00 AM38 °FPassing clouds.5 mph85%30.12 "Hg25 mi
2:00 AM37 °FPassing clouds.3 mph91%30.12 "Hg25 mi
1:00 AM40 °FSprinkles. Passing clouds.6 mph81%30.11 "Hg25 mi
12:00 AM39 °FOvercast.5 mph88%30.11 "Hg25 mi
11:00 PM
Jan 26
36 °FLight rain. Low clouds.2 mph99%30.10 "Hg6 mi
9:00 PM35 °FDrizzle. Low clouds.6 mph99%30.09 "Hg5 mi
8:00 PM35 °FDrizzle. Low clouds.6 mph99%30.10 "Hg3 mi
7:00 PM34 °FDrizzle. Low clouds.6 mph98%30.10 "Hg3 mi
6:00 PM34 °FLight rain. Low clouds.7 mph98%30.12 "Hg4 mi
5:00 PM34 °FLight rain. Low clouds.7 mph98%30.13 "Hg2 mi
Weather by CustomWeather, © 2014

See weather overviewHow to use our weather pages